Temp
10 11 11 12 12 13 14 14 13 11 10 11 10 10 11 10 11 10 9 8 8 8 8 8 8 8 8 8 8 8 8 9 8 9 9 9 9 9 9 9 9 9 9 9 9 9 9 9 9
10 10 12 11 12 13 14 14 13 13 12 12 11 11 11 11 12 11 9 8 8 8 8 8 8 8 8 8 8 8 9 8 8 8 9 9 9 8 9 9 9 9 9 9 9 9 9 9 9
11 11 10 11 12 14 14 13 13 12 12 12 12 11 11 11 10 10 9 9 8 9 9 8 8 9 8 9 9 9 9 8 8 8 8 8 8 8 8 8 9 9 9 9 9 9 9 9 9
12 10 11 11 13 14 13 13 12 12 12 12 12 9 8 8 9 10 9 9 8 9 9 9 9 9 9 9 9 9 8 8 8 8 8 8 8 9 8 9 9 9 9 9 9 9 9 9 9
12 10 11 12 13 13 13 13 12 11 10 10 10 9 8 8 8 8 8 8 8 9 9 9 9 9 9 9 8 8 8 8 8 8 8 8 8 9 8 9 9 9 9 9 9 9 9 9 9
11 11 11 12 13 13 13 12 11 12 10 9 9 9 8 8 8 8 8 8 8 9 9 9 9 9 9 8 8 8 8 8 8 8 8 8 8 8 8 9 9 9 8 8 8 9 8 9 9
10 10 11 12 13 13 13 12 12 12 11 9 10 10 8 8 8 8 9 9 9 9 9 9 9 9 8 8 8 8 8 8 8 8 8 8 8 8 8 8 8 8 8 8 8 8 8 8 9
9 10 11 12 13 13 13 12 12 12 10 10 10 9 9 8 8 7 8 9 9 9 9 9 9 9 8 8 8 8 8 8 8 8 8 8 8 8 8 8 8 8 8 8 7 7 8 8 8
9 10 10 11 12 13 13 12 11 11 10 10 10 10 9 8 9 8 8 8 8 9 9 9 9 9 9 9 9 8 8 8 8 8 8 9 8 8 8 8 8 7 7 7 8 7 8 8 8
10 10 9 10 12 13 13 12 12 11 10 9 10 9 8 9 9 9 8 8 8 8 9 9 9 9 9 9 9 8 9 9 8 8 8 8 7 7 7 7 7 7 7 8 9 9 8 8 8
10 10 9 9 12 12 12 12 12 11 11 11 10 9 8 8 9 9 8 8 8 8 8 9 10 9 9 9 9 8 9 9 9 8 8 8 8 8 7 7 7 7 6 7 9 8 9 9 9
9 9 10 12 12 12 13 13 12 11 11 11 11 9 9 9 9 9 9 8 9 8 7 8 8 9 8 8 8 8 8 9 9 9 8 7 7 7 7 6 6 7 7 8 8 7 9 10 10
10 9 9 10 11 11 12 12 12 11 11 11 11 9 9 9 9 9 8 8 8 7 8 8 7 7 8 9 8 8 9 9 9 8 7 7 7 8 7 7 7 7 7 7 8 8 9 10 10
11 11 10 10 10 10 12 11 12 10 10 11 11 9 9 9 9 9 8 9 9 9 9 8 7 8 10 9 7 8 8 9 8 8 8 8 8 8 8 8 9 8 8 7 7 8 8 9 9
11 10 11 10 11 12 12 12 11 11 10 11 10 9 9 9 9 9 9 9 9 9 8 9 9 8 10 8 8 8 8 8 8 8 8 8 8 8 7 7 7 7 7 7 7 8 8 8 10
10 10 10 11 11 11 11 12 11 11 10 10 10 9 9 9 9 9 8 8 9 9 8 10 10 10 9 8 8 9 8 9 9 8 8 8 9 7 7 8 8 7 7 8 8 8 9 8 9
10 11 10 9 10 10 10 11 11 11 10 10 10 10 10 9 9 9 8 9 9 9 10 11 10 10 9 8 8 8 8 7 8 9 8 9 8 8 7 9 8 8 8 8 7 8 9 10 9
10 10 10 8 9 10 10 11 11 11 10 10 10 10 10 9 9 9 8 8 8 9 10 12 10 10 10 8 8 8 9 9 9 9 8 9 8 8 9 9 9 8 9 9 8 8 8 8 8
10 10 9 8 10 9 9 10 10 11 11 10 10 10 10 10 9 9 8 8 9 9 10 12 11 10 9 8 9 8 8 8 8 8 8 8 9 9 9 9 9 9 9 10 8 8 9 8 8
10 10 10 9 9 9 9 8 8 10 10 11 11 10 10 10 9 9 9 9 9 9 10 12 11 10 8 7 8 8 8 8 9 9 9 9 9 9 9 9 9 7 9 9 8 8 8 8 9
9 10 10 9 9 8 8 8 9 10 11 11 11 10 10 10 9 9 9 9 9 10 11 12 11 10 9 9 9 8 9 7 8 8 9 9 9 9 9 9 9 9 9 10 9 9 9 9 9
10 9 8 9 9 8 8 8 8 9 10 11 10 10 10 10 9 9 9 10 10 10 10 11 11 11 11 11 10 9 8 9 9 9 9 9 9 10 9 9 9 9 9 9 9 10 9 9 9
10 9 10 9 9 8 8 7 10 10 10 10 10 10 10 9 9 9 9 9 10 10 10 10 11 11 10 10 10 10 10 10 9 10 9 9 9 9 9 9 10 9 9 8 9 8 8 9 9
12 10 8 8 9 8 10 8 11 10 12 11 11 11 10 10 9 9 9 9 10 9 10 10 10 11 11 10 9 10 9 9 9 10 9 9 9 9 9 9 9 9 9 9 9 9 9 8 9
11 10 7 8 8 10 11 10 12 12 14 12 12 11 11 10 10 9 9 9 9 10 11 10 9 10 10 10 10 10 9 9 9 9 10 9 9 10 10 10 9 9 9 9 10 9 9 9 8
12 13 13 9 10 10 10 9 11 11 13 13 11 11 11 11 11 10 10 10 8 10 11 9 9 10 10 10 10 9 9 9 10 10 10 10 9 10 10 10 9 9 10 9 10 9 9 9 9
13 12 14 12 11 12 11 10 12 13 14 13 12 12 11 11 11 10 10 10 9 9 9 10 9 9 10 10 10 10 9 10 11 11 10 10 9 9 9 10 10 10 9 9 9 10 10 10 9
14 14 14 14 10 10 11 12 12 13 12 10 12 13 12 12 11 10 10 10 10 9 9 10 9 10 10 10 9 10 9 10 10 10 10 9 9 10 10 10 10 10 10 10 10 10 10 10 9
14 14 14 14 15 11 10 12 14 14 13 11 11 13 13 11 12 11 10 10 10 9 9 9 10 9 9 11 10 10 9 10 10 10 10 10 10 10 10 10 9 10 9 9 10 10 10 10 10
14 14 14 14 15 16 16 15 15 14 14 13 13 12 12 13 13 11 11 11 9 9 9 10 9 9 9 10 10 10 10 9 10 9 9 10 10 9 9 9 9 9 10 9 9 10 10 9 10
Height
3164 3164 3166 3167 3170 3168 3169 3172 3174 3173 3174 3173 3173 3176 3176 3177 3180 3184 3185 3188 3191 3192 3193 3195 3196 3198 3199 3199 3200 3199 3200 3202 3201 3203 3204 3204 3205 3205 3205 3205 3204 3205 3206 3207 3207 3208 3209 3209 3210
3165 3167 3165 3166 3170 3170 3172 3173 3173 3174 3176 3176 3175 3175 3178 3178 3182 3183 3187 3190 3193 3195 3195 3197 3198 3199 3200 3200 3200 3200 3202 3202 3203 3205 3206 3206 3207 3207 3207 3207 3207 3208 3208 3209 3210 3211 3211 3212 3212
3166 3167 3168 3166 3169 3171 3172 3174 3175 3176 3178 3176 3175 3177 3179 3180 3184 3186 3191 3192 3195 3196 3197 3198 3200 3200 3201 3202 3202 3202 3203 3204 3205 3207 3207 3208 3208 3208 3209 3209 3210 3211 3211 3211 3212 3213 3213 3213 3214
3166 3167 3169 3170 3169 3174 3174 3176 3178 3177 3178 3178 3175 3180 3182 3185 3183 3188 3188 3195 3198 3199 3200 3200 3201 3201 3202 3202 3203 3204 3205 3206 3207 3209 3209 3209 3210 3210 3211 3211 3211 3212 3213 3214 3214 3214 3215 3215 3215
3168 3169 3167 3169 3171 3174 3176 3179 3178 3176 3178 3180 3178 3184 3185 3189 3188 3190 3194 3196 3198 3199 3200 3201 3202 3203 3203 3205 3206 3206 3207 3208 3210 3211 3210 3211 3212 3212 3212 3213 3213 3214 3215 3215 3216 3217 3217 3217 3217
3169 3171 3172 3172 3175 3176 3178 3180 3179 3178 3180 3183 3181 3182 3188 3193 3192 3191 3192 3196 3200 3201 3201 3202 3203 3204 3205 3207 3208 3209 3210 3211 3212 3213 3214 3214 3214 3214 3215 3215 3215 3216 3217 3218 3218 3219 3219 3220 3219
3169 3170 3169 3172 3175 3179 3180 3181 3180 3181 3181 3184 3184 3183 3190 3192 3193 3194 3196 3198 3200 3202 3202 3203 3205 3207 3208 3209 3210 3210 3212 3214 3215 3216 3216 3216 3217 3217 3216 3217 3218 3219 3220 3221 3222 3222 3222 3222 3222
3170 3171 3171 3173 3177 3181 3182 3181 3182 3182 3184 3185 3187 3186 3188 3192 3190 3195 3196 3198 3202 3203 3204 3205 3207 3208 3209 3211 3212 3213 3214 3215 3216 3217 3217 3218 3218 3218 3218 3219 3221 3222 3224 3224 3224 3225 3225 3225 3225
3170 3171 3171 3173 3177 3181 3183 3182 3187 3187 3185 3186 3189 3188 3190 3191 3195 3198 3200 3200 3202 3204 3205 3206 3208 3210 3211 3213 3215 3216 3216 3217 3217 3218 3219 3219 3221 3222 3222 3222 3223 3225 3225 3225 3225 3225 3226 3227 3228
3168 3167 3164 3173 3175 3179 3183 3184 3187 3187 3187 3188 3191 3192 3192 3191 3196 3199 3202 3204 3202 3204 3205 3207 3209 3212 3213 3216 3217 3218 3219 3220 3221 3222 3223 3222 3224 3224 3224 3225 3225 3226 3228 3229 3227 3228 3228 3229 3229
3169 3167 3167 3158 3174 3182 3183 3186 3189 3187 3188 3189 3190 3191 3195 3197 3199 3201 3202 3203 3203 3205 3206 3208 3211 3213 3215 3217 3219 3219 3220 3222 3222 3224 3226 3224 3222 3224 3226 3231 3230 3231 3232 3231 3230 3229 3229 3231 3232
3170 3166 3167 3167 3173 3177 3184 3187 3189 3188 3187 3188 3194 3194 3196 3199 3200 3201 3203 3203 3205 3205 3206 3209 3211 3213 3215 3217 3219 3220 3221 3223 3225 3226 3226 3225 3223 3226 3229 3234 3226 3229 3232 3231 3232 3233 3234 3234 3235
3170 3166 3164 3166 3172 3175 3183 3186 3186 3187 3188 3191 3194 3198 3199 3201 3199 3202 3204 3205 3206 3205 3206 3210 3213 3215 3215 3216 3220 3221 3224 3224 3227 3229 3227 3229 3227 3227 3230 3234 3235 3234 3233 3236 3236 3237 3237 3238 3238
3171 3167 3167 3168 3168 3177 3182 3184 3185 3191 3189 3192 3194 3198 3201 3202 3202 3204 3205 3205 3205 3206 3208 3211 3214 3215 3216 3218 3221 3223 3226 3226 3229 3230 3232 3231 3231 3233 3234 3233 3234 3234 3235 3239 3240 3243 3243 3243 3244
3173 3170 3169 3171 3174 3177 3179 3184 3186 3189 3190 3192 3194 3198 3202 3204 3205 3206 3204 3204 3206 3207 3208 3211 3214 3217 3219 3222 3223 3224 3227 3229 3230 3231 3234 3234 3236 3235 3235 3235 3235 3234 3236 3238 3242 3243 3244 3245 3246
3163 3170 3171 3173 3173 3177 3180 3185 3187 3188 3190 3193 3195 3198 3202 3205 3205 3205 3206 3207 3208 3211 3212 3213 3215 3217 3220 3222 3224 3227 3228 3230 3231 3232 3233 3233 3235 3235 3236 3237 3238 3238 3239 3242 3244 3244 3243 3243 3247
3165 3168 3169 3173 3174 3174 3179 3183 3187 3189 3190 3195 3196 3199 3203 3205 3207 3208 3208 3208 3209 3213 3213 3215 3216 3218 3221 3223 3227 3229 3230 3230 3231 3233 3233 3235 3236 3236 3237 3238 3238 3241 3243 3244 3244 3244 3245 3246 3248
3167 3169 3167 3163 3172 3174 3176 3183 3188 3189 3192 3195 3197 3200 3202 3204 3206 3208 3208 3209 3211 3213 3215 3216 3217 3220 3222 3224 3227 3229 3231 3233 3234 3234 3236 3236 3237 3237 3238 3240 3242 3242 3242 3244 3244 3245 3247 3249 3251
3162 3163 3163 3165 3168 3173 3175 3179 3182 3185 3191 3195 3197 3200 3201 3203 3205 3208 3206 3208 3211 3214 3215 3216 3218 3221 3223 3226 3228 3229 3231 3232 3235 3236 3237 3238 3240 3240 3241 3241 3241 3243 3243 3244 3245 3247 3250 3252 3253
3162 3163 3165 3166 3163 3170 3173 3173 3177 3182 3185 3189 3192 3197 3199 3201 3203 3206 3205 3208 3211 3214 3215 3217 3219 3222 3224 3226 3229 3230 3232 3235 3236 3237 3239 3240 3241 3241 3242 3245 3244 3243 3245 3246 3246 3250 3252 3254 3254
3167 3164 3165 3167 3167 3173 3172 3176 3177 3178 3182 3185 3189 3193 3197 3199 3201 3203 3205 3208 3211 3214 3215 3217 3220 3221 3224 3225 3228 3230 3232 3234 3236 3238 3239 3240 3242 3242 3243 3243 3243 3245 3246 3246 3247 3250 3253 3254 3254
3160 3164 3168 3168 3168 3171 3176 3180 3176 3177 3178 3182 3184 3188 3193 3197 3200 3202 3204 3206 3210 3214 3215 3218 3219 3221 3224 3226 3228 3230 3232 3235 3236 3238 3239 3241 3242 3242 3243 3243 3244 3244 3246 3247 3248 3250 3253 3254 3255
3158 3164 3165 3169 3169 3169 3174 3177 3168 3172 3173 3173 3179 3184 3188 3194 3198 3201 3203 3205 3208 3213 3215 3217 3220 3221 3223 3226 3228 3231 3233 3235 3236 3240 3241 3242 3242 3242 3243 3243 3242 3245 3246 3246 3248 3250 3253 3254 3254
3156 3163 3169 3170 3170 3170 3168 3171 3162 3159 3150 3161 3172 3178 3185 3190 3194 3198 3202 3204 3207 3212 3214 3217 3219 3221 3222 3225 3227 3230 3233 3234 3236 3239 3239 3243 3241 3240 3242 3243 3242 3244 3246 3247 3248 3249 3252 3253 3254
3153 3162 3169 3173 3171 3166 3164 3168 3158 3161 3157 3158 3166 3172 3179 3185 3188 3194 3198 3202 3204 3209 3212 3215 3219 3220 3222 3224 3227 3230 3232 3234 3235 3234 3240 3241 3240 3240 3241 3240 3241 3242 3244 3246 3247 3249 3250 3251 3252
3154 3156 3154 3162 3163 3165 3165 3165 3159 3157 3157 3162 3163 3171 3177 3178 3185 3190 3196 3200 3203 3207 3210 3214 3217 3219 3222 3225 3226 3229 3230 3232 3235 3235 3238 3238 3238 3239 3241 3242 3240 3242 3243 3245 3247 3247 3248 3250 3251
3151 3151 3152 3155 3157 3159 3162 3161 3161 3154 3155 3158 3161 3163 3169 3174 3181 3188 3192 3194 3199 3203 3206 3212 3217 3218 3220 3223 3226 3228 3228 3230 3232 3235 3237 3237 3236 3238 3240 3241 3241 3241 3242 3243 3244 3245 3246 3247 3248
3148 3149 3151 3151 3157 3159 3155 3157 3156 3157 3155 3158 3160 3160 3164 3170 3176 3184 3188 3191 3196 3203 3206 3210 3214 3218 3220 3222 3224 3227 3229 3229 3230 3232 3232 3235 3238 3237 3239 3241 3240 3240 3242 3242 3242 3243 3243 3244 3245
3145 3145 3147 3148 3149 3149 3153 3152 3151 3152 3156 3156 3158 3163 3163 3168 3173 3181 3188 3191 3195 3201 3204 3206 3212 3216 3218 3219 3222 3225 3227 3228 3228 3232 3232 3233 3234 3237 3238 3238 3238 3239 3240 3240 3241 3242 3241 3242 3243
3143 3145 3146 3146 3145 3144 3144 3146 3146 3149 3151 3153 3158 3155 3162 3169 3173 3179 3183 3188 3192 3197 3201 3206 3209 3211 3215 3216 3218 3221 3223 3224 3225 3227 3229 3230 3231 3232 3234 3234 3236 3238 3239 3239 3239 3239 3239 3240 3240
Wind_Speed
5 9 12 16 9 10 23 25 28 28 26 23 19 16 12 13 16 21 25 25 22 20 19 18 16 15 13 12 11 12 13 13 15 15 15 16 17 17 18 17 18 18 18 18 18 18 18 18 18
4 6 12 12 9 10 20 19 23 17 17 18 16 7 12 15 8 22 28 23 20 18 17 15 13 11 10 9 10 10 11 13 15 16 16 18 18 18 18 17 17 17 17 17 17 18 18 18 18
10 6 7 3 6 19 25 18 15 12 9 4 5 3 11 17 16 26 25 23 19 16 14 12 9 9 9 9 10 12 13 14 14 15 15 16 16 16 16 16 16 16 16 16 17 18 17 17 17
11 10 6 7 12 20 21 19 19 16 10 6 5 25 17 13 13 13 19 18 18 14 13 10 8 8 9 11 12 14 14 15 14 15 15 15 15 15 16 16 16 15 16 17 17 18 18 17 15
12 11 10 14 11 25 21 20 19 19 19 16 14 27 23 12 16 14 13 13 11 12 11 10 11 13 13 13 14 15 15 15 15 15 15 14 14 14 15 15 16 16 17 19 19 18 17 16 14
6 12 11 9 22 23 19 20 18 15 16 24 21 23 21 13 11 11 9 11 10 10 13 13 14 15 15 14 15 16 17 16 16 14 12 13 14 14 15 16 17 17 18 19 19 19 17 16 15
6 10 15 6 25 23 24 17 13 9 13 16 16 21 22 19 19 16 9 21 19 13 13 13 14 15 14 15 16 16 17 16 14 14 12 12 13 15 16 17 18 19 19 20 19 18 17 17 17
8 20 17 13 20 24 24 16 12 11 21 12 12 24 26 17 22 19 7 9 12 12 9 11 13 14 13 15 15 15 15 14 13 11 12 13 14 15 17 18 19 19 20 20 21 20 18 17 19
6 7 13 20 26 23 20 19 22 19 16 9 8 20 21 23 16 12 7 6 2 9 11 13 12 13 13 12 13 14 15 15 12 11 12 13 13 14 15 18 19 19 20 21 18 21 16 18 20
9 3 9 20 20 20 17 12 22 26 26 17 19 24 19 11 9 4 8 4 3 7 8 12 13 12 14 12 14 14 13 13 11 9 11 15 14 14 15 18 17 18 18 14 13 15 17 21 23
13 7 9 9 18 19 15 11 17 17 14 18 15 29 27 17 6 5 5 4 2 7 6 14 14 15 14 13 14 12 10 12 13 13 16 17 15 14 16 18 15 19 19 16 9 18 24 24 24
9 4 14 26 25 21 10 17 14 19 15 15 11 28 22 14 13 7 4 1 4 6 11 13 10 12 13 14 15 15 11 11 13 14 15 14 25 13 11 10 11 26 20 19 15 20 22 25 24
9 2 7 22 20 25 11 14 23 13 22 16 13 25 20 16 12 4 4 4 2 9 16 15 11 13 12 15 15 14 15 11 10 9 10 9 12 15 16 8 13 21 24 25 24 20 16 18 22
10 3 17 16 14 9 25 18 18 27 22 16 17 24 23 18 17 13 14 8 2 7 13 12 10 13 14 17 14 9 13 11 12 6 9 10 14 11 19 14 15 19 23 23 24 24 22 17 16
4 13 16 15 22 22 25 17 14 19 15 13 24 27 22 19 15 10 10 5 6 3 6 6 13 16 9 16 16 12 12 11 12 13 8 10 12 12 14 15 21 27 24 20 16 20 21 17 16
14 7 17 13 21 25 22 23 21 17 16 17 19 24 20 21 14 9 13 12 10 3 7 10 12 14 16 21 17 14 12 11 12 14 8 10 11 15 13 14 17 25 23 18 18 14 20 22 16
3 4 10 1 11 23 16 23 20 21 20 19 19 23 18 24 20 16 15 15 5 5 9 11 14 18 21 19 15 11 13 9 7 10 10 9 10 11 10 13 21 17 19 16 19 13 13 18 15
10 9 4 3 6 21 20 25 23 26 21 22 22 23 22 24 20 19 15 15 14 7 9 12 15 17 16 18 15 15 13 12 11 14 11 9 11 9 7 9 17 14 15 16 18 17 16 9 8
3 4 4 3 18 22 20 25 30 32 25 24 21 22 23 22 15 9 22 19 12 9 10 15 16 19 16 12 11 13 10 11 9 9 8 8 9 10 9 12 10 12 11 17 17 16 13 17 12
7 6 6 3 6 20 17 24 19 29 33 34 31 26 24 23 18 11 18 18 11 11 12 11 16 17 18 16 17 13 10 11 10 9 8 9 8 7 4 11 7 11 10 16 15 18 18 18 15
3 4 1 5 13 5 21 25 17 29 36 33 34 34 28 25 21 20 20 21 13 11 12 12 16 18 18 19 17 13 11 10 7 7 7 8 7 8 6 6 7 9 10 11 15 18 23 15 14
14 13 6 19 10 11 10 3 13 29 33 38 33 36 32 33 27 25 21 18 11 6 6 11 16 18 16 13 15 13 12 12 10 10 8 7 7 7 8 8 7 7 6 8 13 14 19 19 14
13 3 16 14 15 18 13 8 10 29 41 44 42 38 35 34 31 28 24 16 13 10 6 5 15 16 17 14 12 14 10 11 11 6 8 4 5 7 6 7 7 12 6 8 10 13 10 16 17
10 20 19 19 8 7 16 15 17 20 30 54 48 46 44 39 34 28 29 25 16 16 8 8 12 15 17 15 16 15 11 8 8 4 6 9 7 10 7 5 6 6 7 11 12 9 11 13 13
18 24 7 4 3 2 6 18 17 17 4 27 46 46 42 39 34 35 32 26 23 18 12 11 10 18 18 17 15 15 15 9 10 11 7 8 4 9 10 10 9 6 5 6 10 12 11 15 15
12 19 7 4 1 3 9 5 9 15 20 12 28 48 44 49 40 36 33 30 28 23 19 12 6 15 18 19 19 16 13 12 12 12 12 8 6 6 10 10 8 7 8 6 7 9 10 8 11
11 25 21 7 5 0 5 5 10 4 15 21 18 35 51 43 42 42 38 31 31 28 21 22 10 15 19 18 17 16 15 17 14 7 10 9 8 17 10 10 9 7 7 8 9 8 8 9 10
12 7 10 10 6 4 9 5 11 11 10 13 24 21 37 44 38 34 33 31 29 23 30 30 15 15 18 20 21 19 18 17 14 10 7 9 5 9 7 11 8 7 5 5 6 5 4 4 8
16 13 15 13 11 7 5 7 8 18 15 16 20 22 17 41 45 32 37 35 31 32 31 26 19 17 20 19 20 22 21 20 18 13 13 14 8 7 7 9 5 5 5 4 4 4 3 3 2
17 16 15 15 12 14 11 6 11 5 14 20 25 22 24 19 32 43 37 39 33 33 39 28 24 18 17 19 18 22 23 23 20 17 15 13 10 10 8 6 6 9 7 7 6 5 4 4 6
Wind_Direction
132 143 103 101 89 95 106 109 109 112 94 79 155 139 127 135 133 123 132 131 131 128 127 124 118 113 113 109 101 97 100 100 97 95 95 96 99 102 102 102 102 101 101 101 100 97 99 101 100
86 180 107 100 114 120 110 124 100 113 108 123 109 111 141 109 158 135 137 130 129 127 122 120 119 117 111 109 105 106 111 110 108 104 102 99 100 101 98 97 97 99 99 99 97 97 98 100 101
112 113 77 132 163 124 121 126 123 116 118 131 135 100 120 120 121 129 137 132 132 130 126 125 124 118 117 119 110 111 115 114 112 109 99 93 94 96 95 95 98 101 99 99 98 99 98 98 100
130 86 50 125 129 127 132 122 118 130 124 133 174 94 103 101 117 128 126 133 145 138 129 125 125 119 114 106 103 106 109 111 111 109 98 89 87 91 90 89 93 98 100 100 100 100 99 95 95
125 88 127 111 123 136 140 130 135 105 108 115 133 130 125 140 132 132 141 126 135 128 122 119 121 116 116 111 105 106 110 114 114 106 92 84 88 89 90 90 96 96 97 99 99 97 95 94 94
147 160 189 131 130 133 137 144 136 123 123 125 133 133 125 123 136 122 117 130 136 129 122 118 114 110 107 102 100 103 109 110 106 101 98 91 93 93 93 94 96 95 95 95 95 93 89 86 82
202 184 184 141 131 142 144 159 176 140 148 141 147 128 127 134 137 145 150 124 128 123 123 122 116 110 109 104 101 105 111 112 112 107 101 91 96 100 98 95 96 94 95 94 91 89 89 87 82
332 180 185 172 141 148 165 159 141 143 146 148 115 130 132 130 163 133 108 129 128 125 139 128 118 114 107 103 107 111 114 116 115 110 109 98 95 102 102 95 98 99 97 95 91 86 85 87 88
303 206 206 163 148 153 180 175 135 135 148 131 113 126 129 146 142 158 141 139 149 144 149 137 136 123 112 106 113 114 116 123 119 113 110 108 105 99 101 98 99 103 105 102 98 93 84 91 98
299 160 221 177 152 167 180 161 130 151 157 143 135 133 130 148 170 227 155 152 189 122 154 144 139 132 119 121 119 118 117 112 103 104 110 110 108 102 114 106 106 108 99 97 106 107 102 104 103
322 236 151 196 147 163 163 172 154 168 170 167 145 140 162 167 172 124 104 69 359 140 164 158 150 144 135 124 127 125 126 120 103 115 125 128 126 129 124 113 107 103 80 78 98 115 111 109 109
282 326 279 171 148 151 154 180 168 167 173 171 147 140 163 163 168 160 137 255 149 174 168 124 129 144 141 146 138 135 135 116 112 125 115 116 107 116 117 120 113 117 101 96 103 96 111 113 113
264 25 143 175 165 166 162 174 172 196 172 178 168 163 165 138 166 160 184 215 353 196 163 145 156 148 155 143 141 137 126 124 105 88 127 104 106 98 105 82 114 116 99 89 90 78 93 102 107
265 100 139 117 177 148 160 158 155 158 172 177 179 166 153 144 177 197 208 250 157 167 118 147 175 169 155 140 120 124 126 111 93 110 120 130 103 110 109 80 97 94 97 101 102 90 89 98 104
269 170 173 157 175 164 145 135 158 169 180 172 162 150 163 160 175 207 203 239 222 147 112 152 157 166 137 136 154 139 144 133 125 88 126 123 137 123 105 111 100 105 105 117 108 93 90 88 102
216 164 159 164 173 164 165 157 152 163 183 158 150 150 169 161 178 190 179 237 230 179 207 166 156 155 145 147 148 153 134 140 136 123 116 118 114 121 112 123 118 124 138 123 118 107 102 96 104
244 199 143 316 195 175 182 156 171 177 175 166 159 162 170 175 184 193 224 237 225 159 194 163 148 158 156 157 131 142 155 124 133 121 119 123 122 110 129 149 137 131 143 143 124 132 138 101 105
241 211 322 260 252 176 173 168 158 171 181 173 170 174 179 189 198 199 214 224 222 218 191 173 151 154 158 154 163 161 157 149 147 140 137 130 129 141 135 141 148 137 156 146 135 145 129 150 123
158 145 95 88 266 194 177 174 170 170 178 180 179 184 191 206 207 208 212 228 230 232 214 176 161 160 158 152 147 149 144 171 136 134 142 149 140 156 143 135 161 149 166 158 151 174 144 153 138
151 127 77 77 28 208 193 183 190 166 174 182 185 191 192 203 205 193 216 230 247 240 220 190 171 168 160 165 162 154 159 161 148 133 155 160 166 158 153 156 171 163 142 165 170 178 164 165 173
229 132 359 97 122 266 209 234 226 176 181 189 187 184 191 199 197 205 214 231 251 230 220 195 177 178 176 177 170 171 169 145 164 166 159 155 177 174 161 197 173 151 166 161 172 184 184 177 178
155 68 200 149 134 115 115 259 249 203 189 196 179 182 191 198 202 191 215 241 262 199 221 212 190 185 191 199 173 176 179 158 195 181 173 167 175 176 180 183 198 176 170 178 178 180 179 188 182
135 186 151 148 140 143 169 202 193 204 210 200 194 189 188 197 194 217 211 246 257 252 242 207 208 194 186 210 198 199 184 208 200 178 144 151 182 182 194 194 187 194 181 187 195 173 183 191 197
145 151 151 170 179 193 197 209 221 213 218 207 210 207 205 208 202 201 200 229 246 234 250 238 214 212 197 197 194 199 193 206 226 174 240 219 201 185 174 206 231 219 210 197 210 203 200 205 195
151 156 134 198 219 239 236 215 262 259 214 209 205 208 212 207 206 211 206 215 234 227 239 249 234 218 208 203 210 204 196 201 203 200 215 212 207 204 182 185 203 224 221 231 198 207 200 210 211
204 207 198 143 126 129 114 189 294 323 228 203 208 211 205 217 210 219 210 218 218 240 244 260 177 212 209 210 205 215 211 216 207 219 198 222 236 221 192 201 196 217 208 197 197 203 210 219 227
200 213 250 136 185 147 170 188 338 322 195 213 227 193 208 214 213 214 197 212 204 226 238 249 265 230 218 215 216 215 222 229 239 233 228 224 294 251 217 206 202 203 216 215 222 221 244 217 212
217 246 251 213 141 212 177 187 178 201 209 217 225 213 211 212 213 212 207 215 216 216 240 248 233 268 234 227 229 227 225 236 243 253 249 226 239 188 233 218 209 186 208 211 216 229 238 204 228
228 235 252 281 278 184 153 225 181 197 237 244 224 211 200 211 222 213 216 215 216 209 227 246 235 259 231 237 228 232 228 233 243 241 241 241 246 216 210 194 192 205 209 202 225 241 266 245 232
226 234 243 251 280 304 290 229 205 198 205 291 238 213 210 204 215 217 218 215 219 216 220 234 226 251 254 239 230 230 229 229 234 240 243 242 245 238 220 217 215 228 231 222 222 234 262 269 248